Time,TemperatureF,DewpointF,PressureIn,WindDirection,WindDirectionDegrees,WindSpeedMPH,WindSpeedGustMPH,Humidity,HourlyPrecipIn,Conditions,Clouds,dailyrainin,SoftwareType,DateUTC
2013-05-13 00:00:00,55.4,36.0,30.05,NW,315,0.0,0.0,48,0.00,,,0.01,WUHU216HW,2013-05-13 04:00:00,
2013-05-13 00:01:00,55.4,36.0,30.05,NW,315,0.0,0.0,48,0.00,,,0.00,WUHU216HW,2013-05-13 04:01:00,
2013-05-13 00:06:00,55.4,36.0,30.05,NW,315,0.0,0.0,48,0.00,,,0.00,WUHU216HW,2013-05-13 04:06:00,
2013-05-13 00:11:00,55.3,35.8,30.05,NW,315,0.0,0.0,48,0.00,,,0.00,WUHU216HW,2013-05-13 04:11:00,
2013-05-13 00:16:00,55.3,35.8,30.06,NW,315,0.0,0.0,48,0.00,,,0.00,WUHU216HW,2013-05-13 04:16:00,
2013-05-13 00:21:00,55.1,35.6,30.06,NW,315,0.0,0.0,48,0.00,,,0.00,WUHU216HW,2013-05-13 04:21:00,
2013-05-13 00:26:00,55.1,35.6,30.06,NW,315,0.0,0.0,48,0.00,,,0.00,WUHU216HW,2013-05-13 04:26:00,
2013-05-13 00:31:00,54.9,35.5,30.06,NW,315,0.0,0.0,48,0.00,,,0.00,WUHU216HW,2013-05-13 04:31:00,
2013-05-13 00:37:00,54.9,35.5,30.07,NW,315,0.0,0.0,48,0.00,,,0.00,WUHU216HW,2013-05-13 04:37:00,
2013-05-13 00:41:00,54.7,35.3,30.07,NW,315,0.0,0.0,48,0.00,,,0.00,WUHU216HW,2013-05-13 04:41:00,
2013-05-13 00:46:00,54.7,35.3,30.07,NW,315,0.0,0.0,48,0.00,,,0.00,WUHU216HW,2013-05-13 04:46:00,
2013-05-13 00:52:00,54.7,35.9,30.07,NNW,338,0.0,0.4,49,0.00,,,0.00,WUHU216HW,2013-05-13 04:52:00,
2013-05-13 00:57:00,54.5,36.3,30.07,NNW,338,0.0,0.4,50,0.00,,,0.00,WUHU216HW,2013-05-13 04:57:00,
2013-05-13 01:02:00,54.5,35.7,30.07,NNE,23,0.0,0.8,49,0.00,,,0.00,WUHU216HW,2013-05-13 05:02:00,
2013-05-13 01:07:00,54.4,35.0,30.07,NNE,23,0.0,0.8,48,0.00,,,0.00,WUHU216HW,2013-05-13 05:07:00,
2013-05-13 01:12:00,54.4,35.6,30.07,NNE,23,0.0,0.4,49,0.00,,,0.00,WUHU216HW,2013-05-13 05:12:00,
2013-05-13 01:17:00,54.2,35.4,30.07,NNE,23,0.0,0.0,49,0.00,,,0.00,WUHU216HW,2013-05-13 05:17:00,
2013-05-13 01:22:00,54.0,35.8,30.07,North,0,0.0,0.0,50,0.00,,,0.00,WUHU216HW,2013-05-13 05:22:00,
2013-05-13 01:27:00,53.8,35.7,30.07,North,0,0.0,0.0,50,0.00,,,0.00,WUHU216HW,2013-05-13 05:27:00,
2013-05-13 01:32:00,53.8,35.1,30.07,NNE,23,0.0,0.4,49,0.00,,,0.00,WUHU216HW,2013-05-13 05:32:00,
2013-05-13 01:37:00,54.0,35.2,30.07,NNE,23,0.0,0.4,49,0.00,,,0.00,WUHU216HW,2013-05-13 05:37:00,
2013-05-13 01:42:00,53.8,35.1,30.07,NNE,23,0.0,0.0,49,0.00,,,0.00,WUHU216HW,2013-05-13 05:42:00,
2013-05-13 01:47:00,53.6,35.9,30.07,NNE,23,0.0,0.0,51,0.00,,,0.00,WUHU216HW,2013-05-13 05:47:00,
2013-05-13 01:52:00,53.5,35.3,30.07,North,0,0.0,0.0,50,0.00,,,0.00,WUHU216HW,2013-05-13 05:52:00,
2013-05-13 01:57:00,53.5,35.3,30.07,North,0,0.0,0.0,50,0.00,,,0.00,WUHU216HW,2013-05-13 05:57:00,
2013-05-13 02:02:00,53.5,34.7,30.07,North,0,0.0,0.0,49,0.00,,,0.00,WUHU216HW,2013-05-13 06:02:00,
2013-05-13 02:07:00,53.3,34.6,30.07,North,0,0.0,0.0,49,0.00,,,0.00,WUHU216HW,2013-05-13 06:07:00,
2013-05-13 02:12:00,53.1,35.0,30.07,NNW,338,0.0,0.8,50,0.00,,,0.00,WUHU216HW,2013-05-13 06:12:00,
2013-05-13 02:17:00,52.9,34.8,30.07,NNW,338,0.0,0.8,50,0.00,,,0.00,WUHU216HW,2013-05-13 06:17:00,
2013-05-13 02:22:00,52.9,34.8,30.07,NNW,338,0.0,0.0,50,0.00,,,0.00,WUHU216HW,2013-05-13 06:22:00,
2013-05-13 02:27:00,52.7,35.1,30.07,NNW,338,0.0,0.0,51,0.00,,,0.00,WUHU216HW,2013-05-13 06:27:00,
2013-05-13 02:32:00,52.6,35.4,30.07,NNW,338,0.0,0.0,52,0.00,,,0.00,WUHU216HW,2013-05-13 06:32:00,
2013-05-13 02:37:00,52.4,34.7,30.07,NNW,338,0.0,0.0,51,0.00,,,0.00,WUHU216HW,2013-05-13 06:37:00,
2013-05-13 02:42:00,52.4,34.7,30.08,NNW,338,0.0,0.0,51,0.00,,,0.00,WUHU216HW,2013-05-13 06:42:00,
2013-05-13 02:47:00,52.2,35.1,30.07,NNW,338,0.0,0.0,52,0.00,,,0.00,WUHU216HW,2013-05-13 06:47:00,
2013-05-13 02:52:00,52.2,35.1,30.08,NNW,338,0.0,0.0,52,0.00,,,0.00,WUHU216HW,2013-05-13 06:52:00,
2013-05-13 02:57:00,52.0,34.9,30.08,NNW,338,0.0,0.0,52,0.00,,,0.00,WUHU216HW,2013-05-13 06:57:00,
2013-05-13 03:02:00,51.7,34.6,30.08,NNW,338,0.0,0.0,52,0.00,,,0.00,WUHU216HW,2013-05-13 07:02:00,
2013-05-13 03:07:00,51.5,34.8,30.08,NNW,338,0.0,0.0,53,0.00,,,0.00,WUHU216HW,2013-05-13 07:07:00,
2013-05-13 03:12:00,51.3,34.8,30.08,NNW,338,0.0,0.0,53,0.00,,,0.00,WUHU216HW,2013-05-13 07:12:00,
2013-05-13 03:17:00,51.3,34.8,30.08,NNW,338,0.0,0.0,53,0.00,,,0.00,WUHU216HW,2013-05-13 07:17:00,
2013-05-13 03:22:00,51.1,34.6,30.09,NNW,338,0.0,0.0,53,0.00,,,0.00,WUHU216HW,2013-05-13 07:22:00,
2013-05-13 03:27:00,51.1,35.0,30.08,NNW,338,0.0,0.0,54,0.00,,,0.00,WUHU216HW,2013-05-13 07:27:00,
2013-05-13 03:32:00,50.8,34.7,30.08,NNW,338,0.0,0.0,54,0.00,,,0.00,WUHU216HW,2013-05-13 07:32:00,
2013-05-13 03:37:00,50.6,34.5,30.08,NNW,338,0.0,0.0,54,0.00,,,0.00,WUHU216HW,2013-05-13 07:37:00,
2013-05-13 03:42:00,50.4,34.4,30.08,NNW,338,0.0,0.0,54,0.00,,,0.00,WUHU216HW,2013-05-13 07:42:00,
2013-05-13 03:47:00,50.2,34.2,30.08,NNW,338,0.0,0.0,54,0.00,,,0.00,WUHU216HW,2013-05-13 07:47:00,
2013-05-13 03:52:00,50.2,34.2,30.09,WSW,248,0.0,0.0,54,0.00,,,0.00,WUHU216HW,2013-05-13 07:52:00,
2013-05-13 03:57:00,50.4,34.8,30.09,WSW,248,0.0,0.0,55,0.00,,,0.00,WUHU216HW,2013-05-13 07:57:00,
2013-05-13 04:02:00,50.0,34.5,30.09,WSW,248,0.0,0.0,55,0.00,,,0.00,WUHU216HW,2013-05-13 08:02:00,
2013-05-13 04:07:00,49.7,34.6,30.09,WSW,248,0.0,0.0,56,0.00,,,0.00,WUHU216HW,2013-05-13 08:07:00,
2013-05-13 04:12:00,49.3,35.2,30.09,West,270,0.0,0.0,58,0.00,,,0.00,WUHU216HW,2013-05-13 08:12:00,
2013-05-13 04:17:00,49.0,34.8,30.09,West,270,0.0,0.0,58,0.00,,,0.00,WUHU216HW,2013-05-13 08:17:00,
2013-05-13 04:22:00,48.8,35.6,30.09,NW,315,0.0,0.0,60,0.00,,,0.00,WUHU216HW,2013-05-13 08:22:00,
2013-05-13 04:27:00,48.6,35.8,30.10,NW,315,0.0,0.0,61,0.00,,,0.00,WUHU216HW,2013-05-13 08:27:00,
2013-05-13 04:32:00,48.4,35.3,30.10,NW,315,0.0,0.0,60,0.00,,,0.00,WUHU216HW,2013-05-13 08:32:00,
2013-05-13 04:37:00,48.2,35.1,30.10,NNW,338,0.0,0.4,60,0.00,,,0.00,WUHU216HW,2013-05-13 08:37:00,
2013-05-13 04:42:00,48.2,35.5,30.10,NNW,338,0.0,0.4,61,0.00,,,0.00,WUHU216HW,2013-05-13 08:42:00,
2013-05-13 04:47:00,48.1,35.3,30.10,NW,315,0.0,0.0,61,0.00,,,0.00,WUHU216HW,2013-05-13 08:47:00,
2013-05-13 04:52:00,47.9,35.1,30.10,NW,315,0.0,0.0,61,0.00,,,0.00,WUHU216HW,2013-05-13 08:52:00,
2013-05-13 04:57:00,47.9,34.7,30.10,NW,315,0.0,0.0,60,0.00,,,0.00,WUHU216HW,2013-05-13 08:57:00,
2013-05-13 05:02:00,47.7,34.9,30.10,NW,315,0.0,0.0,61,0.00,,,0.00,WUHU216HW,2013-05-13 09:02:00,
2013-05-13 05:07:00,47.5,35.2,30.10,NW,315,0.0,0.0,62,0.00,,,0.00,WUHU216HW,2013-05-13 09:07:00,
2013-05-13 05:12:00,47.2,34.4,30.10,NW,315,0.0,0.0,61,0.00,,,0.00,WUHU216HW,2013-05-13 09:12:00,
2013-05-13 05:17:00,47.2,34.8,30.10,NW,315,0.0,0.0,62,0.00,,,0.00,WUHU216HW,2013-05-13 09:17:00,
2013-05-13 05:22:00,47.0,34.7,30.10,NW,315,0.0,0.0,62,0.00,,,0.00,WUHU216HW,2013-05-13 09:22:00,
2013-05-13 05:27:00,46.8,34.5,30.11,NW,315,0.0,0.0,62,0.00,,,0.00,WUHU216HW,2013-05-13 09:27:00,
2013-05-13 05:32:00,46.8,34.8,30.11,NW,315,0.0,0.0,63,0.00,,,0.00,WUHU216HW,2013-05-13 09:32:00,
2013-05-13 05:37:00,46.8,34.8,30.11,NW,315,0.0,0.0,63,0.00,,,0.00,WUHU216HW,2013-05-13 09:37:00,
2013-05-13 05:42:00,46.6,34.7,30.11,NW,315,0.0,0.0,63,0.00,,,0.00,WUHU216HW,2013-05-13 09:42:00,
2013-05-13 05:47:00,46.4,34.5,30.11,NW,315,0.0,0.0,63,0.00,,,0.00,WUHU216HW,2013-05-13 09:47:00,
2013-05-13 05:52:00,46.4,34.5,30.11,NW,315,0.0,0.0,63,0.00,,,0.00,WUHU216HW,2013-05-13 09:52:00,
2013-05-13 05:57:00,46.3,34.3,30.12,NW,315,0.0,0.0,63,0.00,,,0.00,WUHU216HW,2013-05-13 09:57:00,
2013-05-13 06:02:00,46.3,34.3,30.12,NW,315,0.0,0.0,63,0.00,,,0.00,WUHU216HW,2013-05-13 10:02:00,
2013-05-13 06:07:00,46.1,34.1,30.12,NW,315,0.0,0.0,63,0.00,,,0.00,WUHU216HW,2013-05-13 10:07:00,
2013-05-13 06:12:00,46.1,34.1,30.12,NW,315,0.0,0.0,63,0.00,,,0.00,WUHU216HW,2013-05-13 10:12:00,
2013-05-13 06:17:00,46.1,34.1,30.12,NW,315,0.0,0.0,63,0.00,,,0.00,WUHU216HW,2013-05-13 10:17:00,
2013-05-13 06:22:00,45.9,34.7,30.12,NW,315,0.0,0.0,65,0.00,,,0.00,WUHU216HW,2013-05-13 10:22:00,
2013-05-13 06:27:00,45.9,34.7,30.12,NW,315,0.0,0.0,65,0.00,,,0.00,WUHU216HW,2013-05-13 10:27:00,
2013-05-13 06:32:00,45.7,34.6,30.13,NW,315,0.0,0.0,65,0.00,,,0.00,WUHU216HW,2013-05-13 10:32:00,
2013-05-13 06:37:00,45.5,34.8,30.13,NW,315,0.0,0.0,66,0.00,,,0.00,WUHU216HW,2013-05-13 10:37:00,
2013-05-13 06:42:00,45.5,34.8,30.13,NW,315,0.0,0.0,66,0.00,,,0.00,WUHU216HW,2013-05-13 10:42:00,
2013-05-13 06:47:00,45.5,35.2,30.13,NW,315,0.0,0.0,67,0.00,,,0.00,WUHU216HW,2013-05-13 10:47:00,
2013-05-13 06:52:00,45.4,35.0,30.13,NW,315,0.0,0.0,67,0.00,,,0.00,WUHU216HW,2013-05-13 10:52:00,
2013-05-13 06:57:00,45.4,34.3,30.13,NW,315,0.0,0.0,65,0.00,,,0.00,WUHU216HW,2013-05-13 10:57:00,
2013-05-13 07:02:00,45.5,34.8,30.14,West,270,0.0,0.0,66,0.00,,,0.00,WUHU216HW,2013-05-13 11:02:00,
2013-05-13 07:07:00,45.7,35.0,30.14,WNW,293,0.0,0.0,66,0.00,,,0.00,WUHU216HW,2013-05-13 11:07:00,
2013-05-13 07:12:00,45.7,35.0,30.14,WNW,293,0.0,0.0,66,0.00,,,0.00,WUHU216HW,2013-05-13 11:12:00,
2013-05-13 07:17:00,45.7,35.4,30.14,WNW,293,0.0,0.0,67,0.00,,,0.00,WUHU216HW,2013-05-13 11:17:00,
2013-05-13 07:22:00,45.7,35.4,30.14,WNW,293,0.0,0.0,67,0.00,,,0.00,WUHU216HW,2013-05-13 11:22:00,
2013-05-13 07:27:00,46.1,35.7,30.15,WNW,293,0.0,0.0,67,0.00,,,0.00,WUHU216HW,2013-05-13 11:27:00,
2013-05-13 07:32:00,46.1,35.7,30.15,WNW,293,0.0,0.0,67,0.00,,,0.00,WUHU216HW,2013-05-13 11:32:00,
2013-05-13 07:37:00,46.4,36.1,30.15,WNW,293,0.0,0.0,67,0.00,,,0.00,WUHU216HW,2013-05-13 11:37:00,
2013-05-13 07:42:00,46.4,36.1,30.15,WNW,293,0.0,0.0,67,0.00,,,0.00,WUHU216HW,2013-05-13 11:42:00,
2013-05-13 07:47:00,46.6,36.3,30.15,WNW,293,0.0,0.0,67,0.00,,,0.00,WUHU216HW,2013-05-13 11:47:00,
2013-05-13 07:52:00,46.8,36.0,30.16,WNW,293,0.0,0.0,66,0.00,,,0.00,WUHU216HW,2013-05-13 11:52:00,
2013-05-13 07:57:00,47.2,36.4,30.16,WNW,293,0.0,0.0,66,0.00,,,0.00,WUHU216HW,2013-05-13 11:57:00,
2013-05-13 08:02:00,47.3,36.2,30.16,WNW,293,0.0,0.0,65,0.00,,,0.00,WUHU216HW,2013-05-13 12:02:00,
2013-05-13 08:07:00,47.5,36.3,30.16,WNW,293,0.0,0.0,65,0.00,,,0.00,WUHU216HW,2013-05-13 12:07:00,
2013-05-13 08:12:00,47.9,36.6,30.16,WNW,293,0.0,0.0,65,0.00,,,0.00,WUHU216HW,2013-05-13 12:12:00,
2013-05-13 08:17:00,48.2,36.6,30.16,WNW,293,0.0,0.0,64,0.00,,,0.00,WUHU216HW,2013-05-13 12:17:00,
2013-05-13 08:22:00,48.6,37.0,30.16,WNW,293,0.0,0.0,64,0.00,,,0.00,WUHU216HW,2013-05-13 12:22:00,
2013-05-13 08:27:00,49.0,37.3,30.16,WNW,293,0.0,0.0,64,0.00,,,0.00,WUHU216HW,2013-05-13 12:27:00,
2013-05-13 08:32:00,49.3,37.6,30.17,WNW,293,0.0,0.0,64,0.00,,,0.00,WUHU216HW,2013-05-13 12:32:00,
2013-05-13 08:37:00,49.9,38.2,30.17,West,270,0.0,0.0,64,0.00,,,0.00,WUHU216HW,2013-05-13 12:37:00,
2013-05-13 08:42:00,50.2,38.4,30.17,West,270,0.0,0.0,64,0.00,,,0.00,WUHU216HW,2013-05-13 12:42:00,
2013-05-13 08:47:00,50.8,39.0,30.17,West,270,0.0,0.0,64,0.00,,,0.00,WUHU216HW,2013-05-13 12:47:00,
2013-05-13 08:52:00,51.1,38.9,30.17,NW,315,0.0,0.0,63,0.00,,,0.00,WUHU216HW,2013-05-13 12:52:00,
2013-05-13 08:57:00,51.7,39.4,30.17,West,270,0.0,0.4,63,0.00,,,0.00,WUHU216HW,2013-05-13 12:57:00,
2013-05-13 09:02:00,52.0,39.3,30.17,West,270,0.0,0.4,62,0.00,,,0.00,WUHU216HW,2013-05-13 13:02:00,
2013-05-13 09:07:00,52.6,39.5,30.17,West,270,0.4,0.4,61,0.00,,,0.00,WUHU216HW,2013-05-13 13:07:00,
2013-05-13 09:12:00,52.9,39.0,30.17,NW,315,0.8,0.8,59,0.00,,,0.00,WUHU216HW,2013-05-13 13:12:00,
2013-05-13 09:17:00,53.5,39.1,30.17,NW,315,0.0,0.8,58,0.00,,,0.00,WUHU216HW,2013-05-13 13:17:00,
2013-05-13 09:22:00,54.0,39.1,30.17,SW,225,0.0,1.4,57,0.00,,,0.00,WUHU216HW,2013-05-13 13:22:00,
2013-05-13 09:27:00,54.4,39.4,30.17,WSW,248,0.8,1.4,57,0.00,,,0.00,WUHU216HW,2013-05-13 13:27:00,
2013-05-13 09:32:00,54.7,39.2,30.17,WNW,293,0.0,0.8,56,0.00,,,0.00,WUHU216HW,2013-05-13 13:32:00,
2013-05-13 09:37:00,55.1,37.3,30.17,NNW,338,0.8,0.8,51,0.00,,,0.00,WUHU216HW,2013-05-13 13:37:00,
2013-05-13 09:42:00,55.8,38.9,30.17,West,270,0.8,0.8,53,0.00,,,0.00,WUHU216HW,2013-05-13 13:42:00,
2013-05-13 09:47:00,56.2,38.3,30.17,NW,315,0.0,0.8,51,0.00,,,0.00,WUHU216HW,2013-05-13 13:47:00,
2013-05-13 09:52:00,56.5,38.6,30.17,WNW,293,0.8,2.2,51,0.00,,,0.00,WUHU216HW,2013-05-13 13:52:00,
2013-05-13 09:57:00,56.7,38.8,30.17,NNW,338,0.0,3.2,51,0.00,,,0.00,WUHU216HW,2013-05-13 13:57:00,
2013-05-13 10:02:00,56.9,38.5,30.17,WSW,248,1.4,3.2,50,0.00,,,0.00,WUHU216HW,2013-05-13 14:02:00,
2013-05-13 10:07:00,57.2,38.9,30.17,ENE,68,0.8,1.4,50,0.00,,,0.00,WUHU216HW,2013-05-13 14:07:00,
2013-05-13 10:12:00,57.4,37.9,30.17,North,0,1.4,2.2,48,0.00,,,0.00,WUHU216HW,2013-05-13 14:12:00,
2013-05-13 10:17:00,57.6,38.1,30.17,West,270,0.8,2.2,48,0.00,,,0.00,WUHU216HW,2013-05-13 14:17:00,
2013-05-13 10:22:00,58.0,37.3,30.17,NNW,338,2.2,3.2,46,0.00,,,0.00,WUHU216HW,2013-05-13 14:22:00,
2013-05-13 10:27:00,58.0,37.3,30.17,WNW,293,1.4,3.2,46,0.00,,,0.00,WUHU216HW,2013-05-13 14:27:00,
2013-05-13 10:32:00,58.3,37.0,30.17,West,270,0.8,1.4,45,0.00,,,0.00,WUHU216HW,2013-05-13 14:32:00,
2013-05-13 10:37:00,58.7,35.6,30.17,NNW,338,0.8,2.2,42,0.00,,,0.00,WUHU216HW,2013-05-13 14:37:00,
2013-05-13 10:42:00,59.0,36.5,30.17,NNW,338,0.4,2.2,43,0.00,,,0.00,WUHU216HW,2013-05-13 14:42:00,
2013-05-13 10:47:00,59.2,35.5,30.17,West,270,1.8,1.8,41,0.00,,,0.00,WUHU216HW,2013-05-13 14:47:00,
2013-05-13 10:52:00,59.8,36.0,30.17,WSW,248,2.2,3.6,41,0.00,,,0.00,WUHU216HW,2013-05-13 14:52:00,
2013-05-13 10:57:00,59.9,34.8,30.17,West,270,2.2,3.6,39,0.00,,,0.00,WUHU216HW,2013-05-13 14:57:00,
2013-05-13 11:02:00,60.1,35.0,30.17,NW,315,0.4,3.6,39,0.00,,,0.00,WUHU216HW,2013-05-13 15:02:00,
2013-05-13 11:07:00,60.5,33.9,30.17,NE,45,2.2,5.0,37,0.00,,,0.00,WUHU216HW,2013-05-13 15:07:00,
2013-05-13 11:12:00,60.7,36.2,30.17,North,0,0.8,5.0,40,0.00,,,0.00,WUHU216HW,2013-05-13 15:12:00,
2013-05-13 11:17:00,60.8,34.9,30.17,WSW,248,3.6,4.4,38,0.00,,,0.00,WUHU216HW,2013-05-13 15:17:00,
2013-05-13 11:22:00,60.8,34.9,30.17,West,270,3.6,4.4,38,0.00,,,0.00,WUHU216HW,2013-05-13 15:22:00,
2013-05-13 11:27:00,61.0,34.4,30.17,West,270,2.6,5.0,37,0.00,,,0.00,WUHU216HW,2013-05-13 15:27:00,
2013-05-13 11:32:00,61.2,33.9,30.17,West,270,2.2,5.0,36,0.00,,,0.00,WUHU216HW,2013-05-13 15:32:00,
2013-05-13 11:37:00,61.4,33.2,30.17,NNW,338,0.8,3.6,35,0.00,,,0.00,WUHU216HW,2013-05-13 15:37:00,
2013-05-13 11:42:00,61.6,34.8,30.16,ENE,68,3.2,3.6,37,0.00,,,0.00,WUHU216HW,2013-05-13 15:42:00,
2013-05-13 11:47:00,61.9,35.2,30.16,WNW,293,2.2,3.6,37,0.00,,,0.00,WUHU216HW,2013-05-13 15:47:00,
2013-05-13 11:52:00,62.3,34.7,30.16,NW,315,2.2,5.8,36,0.00,,,0.00,WUHU216HW,2013-05-13 15:52:00,
2013-05-13 11:57:00,62.3,33.3,30.16,ENE,68,4.4,5.8,34,0.00,,,0.00,WUHU216HW,2013-05-13 15:57:00,
2013-05-13 12:02:00,62.3,34.7,30.16,WNW,293,0.8,4.4,36,0.00,,,0.00,WUHU216HW,2013-05-13 16:02:00,
2013-05-13 12:07:00,63.0,35.5,30.16,SE,135,0.0,4.4,36,0.00,,,0.00,WUHU216HW,2013-05-13 16:07:00,
2013-05-13 12:12:00,63.2,34.8,30.16,West,270,3.6,4.4,35,0.00,,,0.00,WUHU216HW,2013-05-13 16:12:00,
2013-05-13 12:17:00,63.2,33.4,30.15,North,0,2.2,5.0,33,0.00,,,0.00,WUHU216HW,2013-05-13 16:17:00,
2013-05-13 12:22:00,63.0,32.6,30.15,North,0,0.8,5.0,32,0.00,,,0.00,WUHU216HW,2013-05-13 16:22:00,
2013-05-13 12:27:00,63.0,31.9,30.15,West,270,3.6,5.0,31,0.00,,,0.00,WUHU216HW,2013-05-13 16:27:00,
2013-05-13 12:32:00,63.0,33.3,30.15,WSW,248,3.6,5.0,33,0.00,,,0.00,WUHU216HW,2013-05-13 16:32:00,
2013-05-13 12:37:00,63.4,32.9,30.15,SW,225,4.4,4.4,32,0.00,,,0.00,WUHU216HW,2013-05-13 16:37:00,
2013-05-13 12:42:00,63.7,33.9,30.15,West,270,5.4,6.2,33,0.00,,,0.00,WUHU216HW,2013-05-13 16:42:00,
2013-05-13 12:47:00,63.9,32.7,30.15,West,270,3.6,6.2,31,0.00,,,0.00,WUHU216HW,2013-05-13 16:47:00,
2013-05-13 12:52:00,64.1,34.2,30.14,SSW,203,2.6,5.4,33,0.00,,,0.00,WUHU216HW,2013-05-13 16:52:00,
2013-05-13 12:57:00,64.6,33.3,30.14,West,270,3.2,5.4,31,0.00,,,0.00,WUHU216HW,2013-05-13 16:57:00,
2013-05-13 13:02:00,64.4,33.8,30.14,West,270,1.4,5.8,32,0.00,,,0.00,WUHU216HW,2013-05-13 17:02:00,
2013-05-13 13:07:00,63.9,34.1,30.13,NNE,23,2.2,5.8,33,0.00,,,0.00,WUHU216HW,2013-05-13 17:07:00,
2013-05-13 13:12:00,64.3,34.4,30.14,NW,315,3.6,4.4,33,0.00,,,0.00,WUHU216HW,2013-05-13 17:12:00,
2013-05-13 13:17:00,64.3,32.9,30.14,North,0,0.8,5.0,31,0.00,,,0.00,WUHU216HW,2013-05-13 17:17:00,
2013-05-13 13:22:00,63.5,33.0,30.13,North,0,0.8,5.0,32,0.00,,,0.00,WUHU216HW,2013-05-13 17:22:00,
2013-05-13 13:27:00,63.4,33.6,30.13,North,0,2.2,3.2,33,0.00,,,0.00,WUHU216HW,2013-05-13 17:27:00,
2013-05-13 13:32:00,64.3,33.7,30.13,SW,225,4.4,5.8,32,0.00,,,0.00,WUHU216HW,2013-05-13 17:32:00,
2013-05-13 13:37:00,64.8,33.5,30.13,NNW,338,2.2,5.8,31,0.00,,,0.00,WUHU216HW,2013-05-13 17:37:00,
2013-05-13 13:42:00,65.2,33.0,30.13,WNW,293,5.0,5.4,30,0.00,,,0.00,WUHU216HW,2013-05-13 17:42:00,
2013-05-13 13:47:00,65.0,32.9,30.12,NE,45,1.8,5.8,30,0.00,,,0.00,WUHU216HW,2013-05-13 17:47:00,
2013-05-13 13:52:00,65.0,32.9,30.12,North,0,4.0,5.8,30,0.00,,,0.00,WUHU216HW,2013-05-13 17:52:00,
2013-05-13 13:57:00,65.2,33.0,30.12,West,270,5.0,5.0,30,0.00,,,0.00,WUHU216HW,2013-05-13 17:57:00,
2013-05-13 14:02:00,65.5,33.4,30.12,West,270,2.2,5.4,30,0.00,,,0.00,WUHU216HW,2013-05-13 18:02:00,
2013-05-13 14:07:00,65.2,33.0,30.12,WNW,293,0.8,5.4,30,0.00,,,0.00,WUHU216HW,2013-05-13 18:07:00,
2013-05-13 14:12:00,65.5,34.1,30.12,West,270,3.6,4.4,31,0.00,,,0.00,WUHU216HW,2013-05-13 18:12:00,
2013-05-13 14:17:00,66.2,34.0,30.11,WSW,248,0.0,6.8,30,0.00,,,0.00,WUHU216HW,2013-05-13 18:17:00,
2013-05-13 14:22:00,66.4,34.2,30.11,WSW,248,5.4,6.8,30,0.00,,,0.00,WUHU216HW,2013-05-13 18:22:00,
2013-05-13 14:27:00,66.2,33.0,30.11,NW,315,0.8,5.4,29,0.00,,,0.00,WUHU216HW,2013-05-13 18:27:00,
2013-05-13 14:32:00,65.9,32.7,30.11,WSW,248,4.4,5.4,29,0.00,,,0.00,WUHU216HW,2013-05-13 18:32:00,
2013-05-13 14:37:00,65.9,32.7,30.11,WNW,293,3.6,6.2,29,0.00,,,0.00,WUHU216HW,2013-05-13 18:37:00,
2013-05-13 14:42:00,65.9,32.7,30.11,NNE,23,3.2,6.2,29,0.00,,,0.00,WUHU216HW,2013-05-13 18:42:00,
2013-05-13 14:47:00,65.9,33.7,30.11,West,270,5.0,6.2,30,0.00,,,0.00,WUHU216HW,2013-05-13 18:47:00,
2013-05-13 14:52:00,65.9,32.7,30.10,West,270,2.2,6.2,29,0.00,,,0.00,WUHU216HW,2013-05-13 18:52:00,
2013-05-13 14:57:00,66.1,32.9,30.10,NNE,23,3.6,6.8,29,0.00,,,0.00,WUHU216HW,2013-05-13 18:57:00,
2013-05-13 15:02:00,65.9,32.7,30.10,NW,315,2.6,6.8,29,0.00,,,0.00,WUHU216HW,2013-05-13 19:02:00,
2013-05-13 15:07:00,65.9,32.7,30.10,NE,45,2.2,5.8,29,0.00,,,0.00,WUHU216HW,2013-05-13 19:07:00,
2013-05-13 15:12:00,66.1,33.8,30.09,North,0,3.6,5.4,30,0.00,,,0.00,WUHU216HW,2013-05-13 19:12:00,
2013-05-13 15:17:00,66.4,34.9,30.09,SW,225,2.6,5.4,31,0.00,,,0.00,WUHU216HW,2013-05-13 19:17:00,
2013-05-13 15:22:00,66.6,35.7,30.09,SW,225,1.4,4.0,32,0.00,,,0.00,WUHU216HW,2013-05-13 19:22:00,
2013-05-13 15:27:00,66.6,33.3,30.09,West,270,3.2,5.0,29,0.00,,,0.00,WUHU216HW,2013-05-13 19:27:00,
2013-05-13 15:32:00,66.1,32.9,30.09,WNW,293,2.2,5.0,29,0.00,,,0.00,WUHU216HW,2013-05-13 19:32:00,
2013-05-13 15:37:00,65.9,34.4,30.08,WSW,248,2.2,5.0,31,0.00,,,0.00,WUHU216HW,2013-05-13 19:37:00,
2013-05-13 15:42:00,65.9,33.7,30.08,West,270,5.0,5.8,30,0.00,,,0.00,WUHU216HW,2013-05-13 19:42:00,
2013-05-13 15:47:00,66.1,33.8,30.08,NW,315,3.6,6.2,30,0.00,,,0.00,WUHU216HW,2013-05-13 19:47:00,
2013-05-13 15:49:00,65.9,32.7,30.09,West,270,5.0,5.0,29,0.00,,,0.00,WUHU216HW,2013-05-13 19:49:00,
2013-05-13 15:52:00,65.9,32.7,30.09,West,270,5.0,6.2,29,0.00,,,0.00,WUHU216HW,2013-05-13 19:52:00,
2013-05-13 15:57:00,65.9,32.7,30.09,West,270,5.0,5.0,29,0.00,,,0.00,WUHU216HW,2013-05-13 19:57:00,
2013-05-13 15:59:00,64.6,32.6,30.08,NW,315,1.8,1.8,30,0.00,,,0.00,WUHU216HW,2013-05-13 19:59:00,
2013-05-13 16:02:00,64.6,32.6,30.08,NW,315,1.8,1.8,30,0.00,,,0.00,WUHU216HW,2013-05-13 20:02:00,
2013-05-13 16:07:00,64.6,32.6,30.08,NW,315,1.8,1.8,30,0.00,,,0.00,WUHU216HW,2013-05-13 20:07:00,
2013-05-13 16:30:00,65.5,34.8,30.07,WNW,293,2.2,2.2,32,0.00,,,0.00,WUHU216HW,2013-05-13 20:30:00,
2013-05-13 16:35:00,65.5,34.8,30.07,WNW,293,2.2,2.2,32,0.00,,,0.00,WUHU216HW,2013-05-13 20:35:00,
2013-05-13 16:59:00,64.8,33.5,30.07,WSW,248,4.0,4.0,31,0.00,,,0.00,WUHU216HW,2013-05-13 20:59:00,
2013-05-13 17:00:00,64.8,33.5,30.07,WSW,248,4.0,4.0,31,0.00,,,0.00,WUHU216HW,2013-05-13 21:00:00,
2013-05-13 17:05:00,64.8,33.5,30.07,WSW,248,4.0,4.0,31,0.00,,,0.00,WUHU216HW,2013-05-13 21:05:00,
2013-05-13 17:30:00,65.3,33.2,30.07,West,270,2.2,2.2,30,0.00,,,0.00,WUHU216HW,2013-05-13 21:30:00,
2013-05-13 17:35:00,65.3,33.2,30.07,West,270,2.2,2.2,30,0.00,,,0.00,WUHU216HW,2013-05-13 21:35:00,
2013-05-13 17:59:00,65.2,33.0,30.06,SSW,203,5.0,5.0,30,0.00,,,0.00,WUHU216HW,2013-05-13 21:59:00,
2013-05-13 18:00:00,65.2,33.0,30.06,SSW,203,5.0,5.0,30,0.00,,,0.00,WUHU216HW,2013-05-13 22:00:00,
2013-05-13 18:05:00,65.2,33.0,30.06,SSW,203,5.0,5.0,30,0.00,,,0.00,WUHU216HW,2013-05-13 22:05:00,
2013-05-13 18:30:00,65.2,33.8,30.06,WNW,293,0.4,0.4,31,0.00,,,0.00,WUHU216HW,2013-05-13 22:30:00,
2013-05-13 18:35:00,65.2,33.8,30.06,WNW,293,0.4,0.4,31,0.00,,,0.00,WUHU216HW,2013-05-13 22:35:00,
2013-05-13 18:59:00,64.1,34.2,30.06,WSW,248,0.8,0.8,33,0.00,,,0.00,WUHU216HW,2013-05-13 22:59:00,
2013-05-13 19:00:00,64.1,34.2,30.06,WSW,248,0.8,0.8,33,0.00,,,0.00,WUHU216HW,2013-05-13 23:00:00,
2013-05-13 19:05:00,64.1,34.2,30.06,WSW,248,0.8,0.8,33,0.00,,,0.00,WUHU216HW,2013-05-13 23:05:00,
2013-05-13 19:30:00,63.2,36.3,30.06,WSW,248,0.8,0.8,37,0.00,,,0.00,WUHU216HW,2013-05-13 23:30:00,
2013-05-13 19:35:00,63.2,36.3,30.06,WSW,248,0.8,0.8,37,0.00,,,0.00,WUHU216HW,2013-05-13 23:35:00,
2013-05-13 19:59:00,61.2,36.7,30.07,WSW,248,0.4,0.4,40,0.00,,,0.00,WUHU216HW,2013-05-13 23:59:00,
2013-05-13 20:00:00,61.2,36.7,30.07,WSW,248,0.4,0.4,40,0.00,,,0.00,WUHU216HW,2013-05-14 00:00:00,
2013-05-13 20:05:00,61.2,36.7,30.07,WSW,248,0.4,0.4,40,0.00,,,0.00,WUHU216HW,2013-05-14 00:05:00,
2013-05-13 20:30:00,59.0,37.1,30.09,WSW,248,0.0,0.0,44,0.00,,,0.00,WUHU216HW,2013-05-14 00:30:00,
2013-05-13 20:35:00,59.0,37.1,30.09,WSW,248,0.0,0.0,44,0.00,,,0.00,WUHU216HW,2013-05-14 00:35:00,
2013-05-13 20:59:00,56.9,36.8,30.11,WSW,248,0.0,0.0,47,0.00,,,0.00,WUHU216HW,2013-05-14 00:59:00,
2013-05-13 21:00:00,56.9,36.8,30.11,WSW,248,0.0,0.0,47,0.00,,,0.00,WUHU216HW,2013-05-14 01:00:00,
2013-05-13 21:05:00,56.9,36.8,30.11,WSW,248,0.0,0.0,47,0.00,,,0.00,WUHU216HW,2013-05-14 01:05:00,
2013-05-13 21:30:00,55.6,36.2,30.12,WSW,248,0.0,0.0,48,0.00,,,0.00,WUHU216HW,2013-05-14 01:30:00,
2013-05-13 21:35:00,55.6,36.2,30.12,WSW,248,0.0,0.0,48,0.00,,,0.00,WUHU216HW,2013-05-14 01:35:00,
2013-05-13 21:59:00,53.1,36.4,30.14,WSW,248,0.0,0.0,53,0.00,,,0.00,WUHU216HW,2013-05-14 01:59:00,
2013-05-13 22:00:00,53.1,36.4,30.14,WSW,248,0.0,0.0,53,0.00,,,0.00,WUHU216HW,2013-05-14 02:00:00,
2013-05-13 22:05:00,53.1,36.4,30.14,WSW,248,0.0,0.0,53,0.00,,,0.00,WUHU216HW,2013-05-14 02:05:00,
2013-05-13 22:29:00,51.8,36.1,30.16,WSW,248,0.0,0.0,55,0.00,,,0.00,WUHU216HW,2013-05-14 02:29:00,
2013-05-13 22:30:00,51.8,36.1,30.16,WSW,248,0.0,0.0,55,0.00,,,0.00,WUHU216HW,2013-05-14 02:30:00,
2013-05-13 22:35:00,51.8,36.1,30.16,WSW,248,0.0,0.0,55,0.00,,,0.00,WUHU216HW,2013-05-14 02:35:00,
2013-05-13 22:59:00,50.8,36.0,30.17,WSW,248,0.0,0.0,57,0.00,,,0.00,WUHU216HW,2013-05-14 02:59:00,
2013-05-13 23:00:00,50.8,36.0,30.17,WSW,248,0.0,0.0,57,0.00,,,0.00,WUHU216HW,2013-05-14 03:00:00,
2013-05-13 23:05:00,50.8,36.0,30.17,WSW,248,0.0,0.0,57,0.00,,,0.00,WUHU216HW,2013-05-14 03:05:00,
2013-05-13 23:29:00,49.7,36.8,30.19,WSW,248,0.0,0.0,61,0.00,,,0.00,WUHU216HW,2013-05-14 03:29:00,
2013-05-13 23:30:00,49.7,36.8,30.19,WSW,248,0.0,0.0,61,0.00,,,0.00,WUHU216HW,2013-05-14 03:30:00,
2013-05-13 23:35:00,49.7,36.8,30.19,WSW,248,0.0,0.0,61,0.00,,,0.00,WUHU216HW,2013-05-14 03:35:00,
2013-05-13 23:59:00,49.7,36.8,30.20,WSW,248,0.0,0.0,61,0.00,,,0.00,WUHU216HW,2013-05-14 03:59:00,